Home   Weather   Gloucester   Past weeks

Flag for United Kingdom Past Weather in Gloucester, England, United Kingdom — Yesterday and Last 2 Weeks

Now
55 °F

Passing clouds.


Feels Like: 54 °F
Forecast: 46 / 55 °F
Wind: 7 mph from Southwest

Location: Staverton Private

Current Time: Sep 30, 2016 at 11:07:24 AM

Latest Report: Sep 30, 2016 at 10:20 AM


Visibility: N/A

Pressure: 29.89 "Hg

Humidity: 94%

Dew Point: 54 °F

Location of GloucesterLocation

Past Weather in Gloucester — Graph

°F

Gloucester Temperature Yesterday

Maximum temperature yesterday: 64 °F (at 12:20 PM)
Minimum temperature yesterday: 57 °F (at 6:50 PM)
Average temperature yesterday: 62 °F

High & Low Weather Summary for the Past Weeks

 TemperatureHumidityPressure
High75 °F (Sep 15, 3:20 PM)100% (Sep 15, 9:20 AM)30.24 "Hg (Sep 15, 9:20 AM)
Low50 °F (Sep 23, 12:50 AM)46% (Sep 23, 1:50 PM)29.80 "Hg (Sep 15, 2:50 PM)
Average63 °F77%30.07 "Hg
* Reported Sep 15 9:20 AM — Sep 30 9:50 AM, Gloucester, Weather by CustomWeather, © 2016

Note: Actual official high and low records may vary slightly from our data, if they occured in-between our weather recording intervals... More about our weather records

Advertising

Gloucester Weather History for the Previous 24 Hours

Scroll right to see more
 ConditionsComfort  
Time TempWeatherWind HumidityBarometerVisibility
9:50 AM
Fri, Sep 30
54 °FSprinkles. Scattered clouds.3 mph94%29.89 "HgN/A
6:50 PM
Thu, Sep 29
57 °FPassing clouds.5 mph67%29.95 "HgN/A
6:20 PM61 °FPassing clouds.7 mph63%29.92 "HgN/A
5:50 PM63 °FPassing clouds.10 mph59%29.92 "HgN/A
5:20 PM63 °FPassing clouds.13 mph64%29.92 "HgN/A
4:50 PM63 °FPassing clouds.10 mph64%29.92 "HgN/A
4:20 PM63 °FPassing clouds.15 mph59%29.92 "HgN/A
3:50 PM61 °FSprinkles. Scattered clouds.14 mph68%29.92 "HgN/A
3:20 PM64 °FScattered showers. Scattered clouds.15 mph56%29.92 "HgN/A
2:50 PM63 °FPassing clouds.12 mph59%29.92 "HgN/A
2:20 PM63 °FPassing clouds.9 mph73%29.92 "HgN/A
1:50 PM63 °FSprinkles. Passing clouds.12 mph68%29.92 "HgN/A
1:20 PM64 °FScattered clouds.15 mph60%29.92 "HgN/A
12:50 PM64 °FScattered clouds.13 mph68%29.92 "HgN/A
12:20 PM64 °FScattered clouds.12 mph68%29.92 "HgN/A
11:50 AM63 °FScattered clouds.12 mph73%29.92 "HgN/A
11:20 AM63 °FPassing clouds.14 mph73%29.92 "HgN/A
Weather by CustomWeather, © 2016

See weather overviewHow to use our weather pages